This is the latest recevied weather packets stored in our database for station/object EA4BCR. If no packets are shown the sender has not sent any weather packets the latest 10 day(s).
| Time | Temp. | Humidity | Pressure | Rain* | Wind** | Luminosity | Snow |
|---|---|---|---|---|---|---|---|
| 1778032854 | 8.33° C | 79% | 1014.2 hPa | - | - | - | - |
| 1778032254 | 8.33° C | 77% | 1014.1 hPa | - | - | - | - |
| 1778031654 | 8.33° C | 79% | 1014 hPa | - | - | - | - |
| 1778031054 | 8.33° C | 78% | 1014.1 hPa | - | - | - | - |
| 1778030454 | 8.89° C | 76% | 1013.9 hPa | - | - | - | - |
| 1778029854 | 8.33° C | 77% | 1014 hPa | - | - | - | - |
| 1778029254 | 8.33° C | 76% | 1014.2 hPa | - | - | - | - |
| 1778028654 | 8.89° C | 75% | 1014.1 hPa | - | - | - | - |
| 1778028054 | 8.89° C | 74% | 1014.2 hPa | - | - | - | - |
| 1778027454 | 9.44° C | 73% | 1014 hPa | - | - | - | - |
| 1778026854 | 9.44° C | 73% | 1014.1 hPa | - | - | - | - |
| 1778026254 | 8.89° C | 72% | 1014.2 hPa | - | - | - | - |
| 1778025654 | 9.44° C | 75% | 1014.2 hPa | - | - | - | - |
| 1778025054 | 10° C | 70% | 1014 hPa | - | - | - | - |
| 1778024454 | 10.56° C | 66% | 1013.7 hPa | - | - | - | - |
| 1778023854 | 11.11° C | 67% | 1013.5 hPa | - | - | - | - |
| 1778023254 | 11.11° C | 67% | 1013.5 hPa | - | - | - | - |
| 1778022654 | 11.11° C | 65% | 1013.5 hPa | - | - | - | - |
| 1778022054 | 11.11° C | 65% | 1013.2 hPa | - | - | - | - |
| 1778021454 | 11.11° C | 65% | 1013.3 hPa | - | - | - | - |
| 1778020854 | 11.11° C | 63% | 1013.3 hPa | - | - | - | - |
| 1778020254 | 11.67° C | 62% | 1013 hPa | - | - | - | - |
| 1778019654 | 12.78° C | 58% | 1012.7 hPa | - | - | - | - |
| 1778019054 | 12.78° C | 58% | 1012.8 hPa | - | - | - | - |
| 1778018454 | 12.78° C | 56% | 1012.8 hPa | - | - | - | - |
* Rain since midnight (hover to see other rain measurements)
** Current wind speed in m/s (hover to see current wind gust speed)